User: anonymous   Login
Location: Unspecified
(39.0670°S, 0.0000°E)
Time: 09:20:50
(UTC+00:00)
Language:

NOAA 19 - Orbit

View from above orbital plane
View from above orbital plane
View from above satellite
View from above satellite

Ground track
Ground track

The orbit data is extracted from the following two-line orbital elements,

1 33591U 09005A   19232.95127673 +.00000013 +00000-0 +32295-4 0  9991
2 33591 099.1833 225.6155 0013582 197.1989 162.8723 14.12372090542576
Epoch (UTC): 20 August 2019 22:49:50
Eccentricity: 0.0013582
inclination: 99.1833°
perigee height: 841 km
apogee height: 861 km
right ascension of ascending node: 225.6155°
argument of perigee: 197.1989°
revolutions per day: 14.12372090
mean anomaly at epoch: 162.8723°
orbit number at epoch: 54257

The dashed part of the orbit path shows where the satellite is in the earth's shadow,  

DLR